Tracking 30142 objects as of 21-Jan-2025
HD Live streaming from Space Station
objects crossing your sky now

COSMOS 1818 COOLANT

Track COSMOS 1818 COOLANT now!
10-day predictions


NORAD ID: 50792
Int'l Code: 1987-011BH
Perigee: 761.3 km
Apogee: 784.8 km
Inclination: 65.0 °
Period: 100.2 minutes
Semi major axis: 7144 km
RCS: Unknown
Launch date: February 1, 1987
Source: Commonwealth of Independent States (former USSR) (CIS)
Launch site: TYURATAM MISSILE AND SPACE COMPLEX (TTMTR)

Note: This is SATELLITE DEBRIS
Your satellite tracking list
Your tracking list is empty




NASA's NSSDC Master Catalog

Two Line Element Set (TLE):
1 50792U 87011BH  25020.73796991  .00002616  00000-0  89920-3 0  9996
2 50792  65.0190 191.6431 0016491 255.1928 116.6728 14.37764194 27101
Source of the keplerian elements: AFSPC